Weather History for Blue Canyon, CA

Change the Weather History Date:

Monday, November 25, 2013

  Actual Average Record
Temperature  
Mean Temperature 44 °F -  
Max Temperature 48 °F 47 °F 67 °F (1969)
Min Temperature 41 °F 35 °F 22 °F (1973)
Degree Days  
Heating Degree Days 20    
Moisture  
Dew Point 25 °F    
Average Humidity 47    
Maximum Humidity 73    
Minimum Humidity 22    
Precipitation  
Precipitation 0.00 in - - ()
Sea Level Pressure  
Sea Level Pressure 30.24 in    
Wind  
Wind Speed 2 mph (SSE)    
Max Wind Speed 6 mph    
Max Gust Speed -    
Visibility 10 miles    
Events      
Averages and records for this station are not official NWS values.
T = Trace of Precipitation, MM = Missing Value Source: NWS Daily Summary

Daily Weather History Graph

Daily Weather History Graph

Search for Another Location

Airport:

Trip Planner

Search our weather history database for the weather conditions in past years. The results will help you decide how hot, cold, wet, or windy it might be!

Date:

Astronomy

Nov. 25, 2013 Rise Set
Actual Time 6:57 AM PST 4:41 PM PST
Civil Twilight 6:28 AM PST 5:11 PM PST
Nautical Twilight 5:55 AM PST 5:44 PM PST
Astronomical Twilight 5:23 AM PST 6:16 PM PST
Moon No Moon Rise 12:18 PM PST (11/25)
Length of Visible Light 10h 42m
Length of Day
9h 44m
Waning Gibbous, 50% of the Moon is Illuminated
Nov 25
Waning Gibbous
Dec 2
New
Dec 9
First Quarter
Dec 17
Full
Dec 25
Last Quarter

Hourly Weather History & Observations

Time (PST) Temp. Windchill Dew Point Humidity Pressure Visibility Wind Dir Wind Speed Gust Speed Precip Events Conditions
12:52 AM 44.1 °F 41.5 °F 10.0 °F 25% 30.19 in 10.0 mi NE 4.6 mph - N/A   Clear
1:52 AM 46.0 °F - 9.0 °F 22% 30.19 in 10.0 mi Calm Calm - N/A   Clear
2:52 AM 43.0 °F - 12.0 °F 28% 30.21 in 10.0 mi Calm Calm - N/A   Clear
3:52 AM 41.0 °F - 17.1 °F 38% 30.22 in 10.0 mi Calm Calm - N/A   Clear
4:52 AM 45.0 °F - 10.0 °F 24% 30.21 in 10.0 mi Calm Calm - N/A   Clear
5:52 AM 45.0 °F - 10.0 °F 24% 30.21 in 10.0 mi Calm Calm - N/A   Clear
6:52 AM 42.1 °F - 8.1 °F 25% 30.23 in 10.0 mi Calm Calm - N/A   Clear
7:52 AM 42.1 °F - 12.9 °F 31% 30.25 in 10.0 mi Calm Calm - N/A   Clear
8:52 AM 45.0 °F - 19.0 °F 36% 30.25 in 10.0 mi Calm Calm - N/A   Clear
9:52 AM 46.0 °F 43.9 °F 23.0 °F 40% 30.27 in 10.0 mi South 4.6 mph - N/A   Clear
10:52 AM 46.9 °F - 24.1 °F 41% 30.27 in 10.0 mi Variable 3.5 mph - N/A   Clear
11:52 AM 46.9 °F - 30.9 °F 54% 30.25 in 10.0 mi Variable 5.8 mph - N/A   Clear
12:52 PM 48.0 °F - 32.0 °F 54% 30.25 in 10.0 mi West 5.8 mph - N/A   Clear
1:52 PM 48.9 °F - 34.0 °F 56% 30.23 in 10.0 mi WSW 4.6 mph - N/A   Clear
2:52 PM 48.9 °F - 35.1 °F 59% 30.25 in 10.0 mi West 5.8 mph - N/A   Clear
3:52 PM 46.9 °F - 35.1 °F 63% 30.26 in 10.0 mi West 4.6 mph - N/A   Clear
4:52 PM 44.1 °F - 34.0 °F 68% 30.25 in 10.0 mi Calm Calm - N/A   Clear
5:52 PM 42.1 °F - 34.0 °F 73% 30.25 in 10.0 mi Calm Calm - N/A   Clear
6:52 PM 45.0 °F 43.5 °F 35.1 °F 68% 30.25 in 10.0 mi East 3.5 mph - N/A   Clear
7:52 PM 46.9 °F - 34.0 °F 61% 30.25 in 10.0 mi SE 3.5 mph - N/A   Clear
8:52 PM 46.9 °F - 33.1 °F 59% 30.25 in 10.0 mi SE 4.6 mph - N/A   Clear
9:52 PM 45.0 °F 43.5 °F 33.1 °F 63% 30.25 in 10.0 mi ESE 3.5 mph - N/A   Clear
10:52 PM 46.9 °F - 33.1 °F 59% 30.25 in 10.0 mi SE 3.5 mph - N/A   Clear
11:52 PM 46.9 °F - 33.1 °F 59% 30.24 in 10.0 mi ESE 3.5 mph - N/A   Clear